Regional Weather Roundup
Issued by NWS

Home | Current Version | Previous Version | Graphics & Text | Print | Product List | Glossary On
Versions: 1 2 3 4 5 6 7 8 9 10 11 12 13 14 15 16 17 18 19 20 21 22 23 24 25 26 27 28 29 30 31 32 33 34 35 36 37 38 39 40 41 42 43 44 45 46 47 48 49 50
000
ASUS43 KTOP 221408
RWRKS

WEATHER ROUNDUP FOR KANSAS
NATIONAL WEATHER SERVICE GOODLAND KS
800 AM CST MON JAN 22 2018

NOTE:  "FAIR" INDICATES FEW OR NO CLOUDS BELOW 12,000 FEET WITH NO
SIGNIFICANT WEATHER AND/OR OBSTRUCTIONS TO VISIBILITY.

KSZ001>006-013>018-027>032-041>047-221500-
NORTHWEST KANSAS

CITY           SKY/WX    TMP DP  RH WIND       PRES   REMARKS
GOODLAND       CLOUDY    25  23  92 NW29G39   29.86R FOG     WCI   8
HAYS             N/A    N/A N/A N/A MISG        N/A
HILL CITY      FOG       31  30  96 NW37G52   29.72  VSB 1/2 WCI  15
RUSSELL        LGT SNOW  33  32  96 NW33G44   29.59R FOG     WCI  18
$$

KSZ061>065-074>080-084>089-221500-
SOUTHWEST KANSAS

CITY           SKY/WX    TMP DP  RH WIND       PRES   REMARKS
DODGE CITY     CLOUDY    32  25  75 NW32G52   29.75R WCI  17
ELKHART        CLEAR     32  23  70 NW24G30   29.94R WCI  18
GARDEN CITY    CLOUDY    30  25  81 NW37G51   29.82R WCI  14
GREAT BEND     LGT SNOW  32  30  92 NW31G38   29.62R FOG     WCI  17
LIBERAL        PTCLDY    29  23  78 NW24G31   29.89R WCI  15
PRATT          LGT SNOW  32  29  90 NW32G41   29.65R WCI  17
$$

KSZ066>073-081>083-090>101-221500-
SOUTHEAST KANSAS

CITY           SKY/WX    TMP DP  RH WIND       PRES   REMARKS
COFFEYVILLE    MOCLDY    39  27  62 SW18G25   29.60S WCI  30
HUTCHINSON     LGT SNOW  33  33 100 NW18      29.55R VSB 3/4 WCI  22
MEDICINE LODGE   N/A     41  28  60 NW23G40   29.66R
NEWTON         LGT RAIN  34  33  96 W15       29.49R FOG     WCI  24
PARSONS        CLOUDY    39  28  64 SW16      29.58S WCI  30
WICHITA INTL   LGT RAIN  37  32  82 W24G32    29.54R WCI  26
WICHITA JABRA  MIX PCPN  36  33  89 W20G29    29.51R WCI  25
WICHITA MCCONL LGT RAIN  37  31  79 W20G28    29.53R WCI  26
WINFIELD       CLOUDY    39  29  67 W23G30    29.59S WCI  28
$$

KSZ007>012-019>026-033>040-048>060-102>105-221500-
NORTHEAST KANSAS

CITY           SKY/WX    TMP DP  RH WIND       PRES   REMARKS
CONCORDIA      LGT SNOW  33  31  92 N20G32    29.50R FOG     WCI  21
EMPORIA        CLOUDY    36  31  82 SW15      29.46S WCI  27
LAWRENCE       CLOUDY    36  33  89 S10       29.47S WCI  28
MANHATTAN      CLOUDY    35  34  96 W6        29.46R FOG
MARYSVILLE     CLOUDY    34  34 100 NW15      29.44S FOG     WCI  24
OLATHE IND     CLOUDY    36  33  89 S12       29.48F WCI  28
OLATHE EXE     CLOUDY    35  32  88 S9G18     29.48F
SALINA         FLURRIES  36  34  92 NW18      29.52R WCI  26
TOPEKA BILLARD CLOUDY    36  33  89 VRB5      29.46S
TOPEKA FORBES  CLOUDY    36  33  89 SW9       29.45S
$$



USA.gov is the U.S. government's official web portal to all federal, state and local government web resources and services.